Location: Riddle Hill
(39.7867°N, 89.7645°W)
Time: 21:05:46
(UTC+00:00)

SAR-Lupe-4 - Pass Details

Date: 29 October 2020
Orbit: 481 x 484 km, 98.2° (Epoch: 25 November)

Event Time Altitude Azimuth Distance (km) Brightness Sun altitude
Rises 23:23:21 0° 22° (NNE) 2,550 6.9 -5.2°
Reaches altitude 10° 23:25:34 10° 32° (NNE) 1,665 5.9 -5.6°
Maximum altitude 23:28:50 33° 98° (E) 821 4.2 -6.2°
Drops below altitude 10° 23:32:05 10° 165° (SSE) 1,653 6.2 -6.8°
Sets 23:34:16 0° 175° (S) 2,528 7.3 -7.2°
